EXS76RT LTAI-EGPH

Flight info

Callsign EXS76RT
Flight time 4h 42m
Altitude 36000
Route EKNUD UQ26 TUDBU DCT GRN T226 NAVOD DCT SODGO DCT INVED DCT BEGLA/N0455F360 DCT UBUXI DCT DITIS DCT VARIK DCT KATCE DCT HMM L602 TENLI DCT BERGI L602 SUPUR P1 GODOS DCT AGPED
Aircraft B738/M-SDE2E3FGHIRWXY/LB1

Departure

Time 2026-04-22 10:47
Airport Antalya International Airport (LTAI)

Arrival

Time 2026-04-22 15:29
Airport Edinburgh Airport (EGPH)
Time Latitude Longitude Altitude Speed Heading
2026-04-22 10:14 36.89901 30.80489 177 ft 0 kts 275°
2026-04-22 10:35 36.89901 30.80496 177 ft 2 kts 277°
2026-04-22 10:35 36.89899 30.80514 177 ft 2 kts 275°
2026-04-22 10:35 36.89898 30.80532 177 ft 2 kts 276°
2026-04-22 10:36 36.89896 30.80551 177 ft 2 kts 276°
2026-04-22 10:36 36.89894 30.80570 176 ft 2 kts 275°
2026-04-22 10:36 36.89892 30.80589 176 ft 2 kts 295°
2026-04-22 10:36 36.89884 30.80604 176 ft 2 kts 318°
2026-04-22 10:37 36.89871 30.80614 176 ft 2 kts 342°
2026-04-22 10:37 36.89846 30.80615 176 ft 1 kts 10°
2026-04-22 10:37 36.89845 30.80614 176 ft 0 kts
2026-04-22 10:40 36.89846 30.80615 176 ft 1 kts
2026-04-22 10:41 36.89874 30.80619 176 ft 6 kts
2026-04-22 10:41 36.89938 30.80628 176 ft 11 kts
2026-04-22 10:41 36.90026 30.80640 176 ft 12 kts
2026-04-22 10:41 36.90105 30.80651 176 ft 10 kts
2026-04-22 10:42 36.90173 30.80660 177 ft 9 kts
2026-04-22 10:42 36.90238 30.80669 177 ft 9 kts
2026-04-22 10:42 36.90301 30.80683 177 ft 8 kts 39°
2026-04-22 10:42 36.90316 30.80758 177 ft 9 kts 83°
2026-04-22 10:43 36.90371 30.80799 177 ft 11 kts
2026-04-22 10:43 36.90464 30.80812 178 ft 15 kts
2026-04-22 10:43 36.90586 30.80830 179 ft 19 kts
2026-04-22 10:43 36.90738 30.80852 180 ft 24 kts
2026-04-22 10:44 36.90917 30.80875 181 ft 24 kts
2026-04-22 10:44 36.91074 30.80898 182 ft 17 kts
2026-04-22 10:44 36.91134 30.80922 182 ft 7 kts 57°
2026-04-22 10:44 36.91138 30.80983 181 ft 6 kts 95°
2026-04-22 10:45 36.91136 30.81007 181 ft 0 kts 96°
2026-04-22 10:45 36.91136 30.81008 181 ft 0 kts 96°
2026-04-22 10:45 36.91134 30.81032 181 ft 5 kts 96°
2026-04-22 10:45 36.91127 30.81093 180 ft 8 kts 101°
2026-04-22 10:46 36.91093 30.81136 180 ft 8 kts 186°
2026-04-22 10:46 36.91082 30.81134 180 ft 2 kts 186°
2026-04-22 10:46 36.90891 30.81106 180 ft 62 kts 185°
2026-04-22 10:46 36.90231 30.81017 176 ft 126 kts 186°
2026-04-22 10:47 36.89185 30.80871 200 ft 174 kts 183°
2026-04-22 10:47 36.87968 30.80704 826 ft 175 kts 181°
2026-04-22 10:47 36.86806 30.80814 1584 ft 169 kts 161°
2026-04-22 10:47 36.85719 30.81384 2095 ft 171 kts 153°
2026-04-22 10:48 36.84542 30.81833 2414 ft 187 kts 174°
2026-04-22 10:48 36.83195 30.81837 2765 ft 200 kts 178°
2026-04-22 10:48 36.81749 30.81946 3128 ft 213 kts 172°
2026-04-22 10:48 36.80256 30.82203 3617 ft 221 kts 168°
2026-04-22 10:49 36.78758 30.82782 4079 ft 230 kts 155°
2026-04-22 10:49 36.77291 30.83697 4451 ft 245 kts 153°
2026-04-22 10:49 36.75768 30.84807 4803 ft 260 kts 141°
2026-04-22 10:49 36.74704 30.86633 5313 ft 269 kts 108°
2026-04-22 10:50 36.74558 30.88940 5917 ft 274 kts 80°
2026-04-22 10:50 36.75197 30.91040 6475 ft 279 kts 62°
2026-04-22 10:51 36.76313 30.93465 7139 ft 285 kts 59°
2026-04-22 10:51 36.77325 30.95614 7748 ft 289 kts 59°
2026-04-22 10:51 36.78326 30.97780 8345 ft 292 kts 59°
2026-04-22 10:52 36.79330 30.99991 8933 ft 296 kts 59°
2026-04-22 10:52 36.80361 31.02201 9525 ft 298 kts 55°
2026-04-22 10:52 36.81622 31.04234 10069 ft 299 kts 41°
2026-04-22 10:52 36.83308 31.05841 10421 ft 308 kts 26°
2026-04-22 10:53 36.85293 31.06913 10719 ft 318 kts 14°
2026-04-22 10:53 36.87470 31.07573 10975 ft 330 kts
2026-04-22 10:53 36.89814 31.07618 11224 ft 340 kts 349°
2026-04-22 10:53 36.92094 31.06815 11675 ft 344 kts 334°
2026-04-22 10:54 36.94210 31.05409 12254 ft 346 kts 326°
2026-04-22 10:54 36.96179 31.03720 12895 ft 347 kts 323°
2026-04-22 10:54 36.98332 31.02297 13585 ft 351 kts 336°
2026-04-22 10:54 37.00672 31.01347 14213 ft 356 kts 341°
2026-04-22 10:55 37.03057 31.00573 14859 ft 359 kts 342°
2026-04-22 10:55 37.05490 30.99787 15467 ft 363 kts 342°
2026-04-22 10:55 37.07918 30.98957 16090 ft 365 kts 341°
2026-04-22 10:55 37.10379 30.98066 16731 ft 368 kts 340°
2026-04-22 10:56 37.12842 30.97136 17325 ft 371 kts 340°
2026-04-22 10:56 37.15293 30.96188 17924 ft 373 kts 339°
2026-04-22 10:56 37.17769 30.95221 18520 ft 375 kts 339°
2026-04-22 10:56 37.20300 30.94226 19082 ft 379 kts 339°
2026-04-22 10:57 37.22815 30.93235 19617 ft 382 kts 339°
2026-04-22 10:57 37.25359 30.92236 20174 ft 385 kts 339°
2026-04-22 10:57 37.27927 30.91227 20705 ft 388 kts 339°
2026-04-22 10:57 37.30514 30.90211 21208 ft 391 kts 339°
2026-04-22 10:58 37.33087 30.89202 21768 ft 392 kts 339°
2026-04-22 10:58 37.35715 30.88168 22228 ft 396 kts 339°
2026-04-22 10:58 37.38324 30.87142 22739 ft 398 kts 339°
2026-04-22 10:58 37.40989 30.86092 23222 ft 401 kts 339°
2026-04-22 10:59 37.43676 30.85033 23686 ft 404 kts 339°
2026-04-22 10:59 37.46334 30.83985 24203 ft 405 kts 339°
2026-04-22 10:59 37.49024 30.82924 24653 ft 408 kts 338°
2026-04-22 10:59 37.51757 30.81845 25109 ft 411 kts 339°
2026-04-22 11:00 37.54475 30.80771 25561 ft 413 kts 338°
2026-04-22 11:00 37.57253 30.79674 26045 ft 415 kts 338°
2026-04-22 11:00 37.59993 30.78591 26492 ft 417 kts 338°
2026-04-22 11:00 37.62781 30.77487 26875 ft 420 kts 338°
2026-04-22 11:01 37.65573 30.76380 27294 ft 423 kts 338°
2026-04-22 11:01 37.68362 30.75274 27668 ft 425 kts 338°
2026-04-22 11:01 37.71194 30.74150 28107 ft 427 kts 338°
2026-04-22 11:01 37.74041 30.73018 28469 ft 430 kts 338°
2026-04-22 11:02 37.76884 30.71887 28818 ft 433 kts 338°
2026-04-22 11:02 37.79785 30.70734 29200 ft 435 kts 338°
2026-04-22 11:02 37.82702 30.69689 29570 ft 439 kts 342°
2026-04-22 11:02 37.85717 30.68996 29865 ft 447 kts 349°
2026-04-22 11:03 37.88845 30.68901 30301 ft 452 kts 358°
2026-04-22 11:03 37.91995 30.69308 30741 ft 456 kts
2026-04-22 11:03 37.95095 30.70141 31191 ft 458 kts 10°
2026-04-22 11:03 37.98157 30.71409 31647 ft 460 kts 16°
2026-04-22 11:04 38.01070 30.73010 32011 ft 462 kts 21°
2026-04-22 11:04 38.03920 30.74940 32373 ft 465 kts 25°
2026-04-22 11:04 38.06717 30.77001 32737 ft 463 kts 24°
2026-04-22 11:04 38.09559 30.78806 33112 ft 457 kts 18°
2026-04-22 11:05 38.12531 30.80239 33474 ft 451 kts 12°
2026-04-22 11:05 38.15534 30.81243 33691 ft 447 kts
2026-04-22 11:05 38.18607 30.81829 33903 ft 444 kts 359°
2026-04-22 11:05 38.21686 30.81978 34192 ft 438 kts 353°
2026-04-22 11:06 38.24709 30.81695 34539 ft 431 kts 346°
2026-04-22 11:06 38.27604 30.81010 34854 ft 424 kts 340°
2026-04-22 11:06 38.30451 30.80007 35124 ft 421 kts 338°
2026-04-22 11:06 38.33226 30.78965 35349 ft 421 kts 338°
2026-04-22 11:07 38.36082 30.77993 35534 ft 424 kts 340°
2026-04-22 11:07 38.38976 30.77160 35700 ft 426 kts 342°
2026-04-22 11:07 38.41864 30.76460 35874 ft 428 kts 344°
2026-04-22 11:07 38.44821 30.75842 35992 ft 430 kts 345°
2026-04-22 11:08 38.47771 30.75287 36001 ft 431 kts 346°
2026-04-22 11:08 38.53712 30.74268 36002 ft 430 kts 346°
2026-04-22 11:09 38.59682 30.73282 35997 ft 430 kts 346°
2026-04-22 11:09 38.65622 30.72300 35991 ft 431 kts 346°
2026-04-22 11:10 38.71541 30.71320 35975 ft 429 kts 346°
2026-04-22 11:10 38.77453 30.70335 35982 ft 429 kts 346°
2026-04-22 11:11 38.83326 30.69148 35977 ft 425 kts 341°
2026-04-22 11:11 38.88865 30.66727 35983 ft 417 kts 330°
2026-04-22 11:12 38.94041 30.63496 35986 ft 413 kts 327°
2026-04-22 11:12 38.99154 30.60088 35970 ft 415 kts 327°
2026-04-22 11:13 39.04242 30.56703 35976 ft 414 kts 327°
2026-04-22 11:13 39.09378 30.53317 35965 ft 414 kts 328°
2026-04-22 11:14 39.14520 30.49941 35965 ft 413 kts 328°
2026-04-22 11:14 39.19614 30.46598 35958 ft 414 kts 328°
2026-04-22 11:15 39.24749 30.43226 35947 ft 413 kts 328°
2026-04-22 11:15 39.29896 30.39841 35941 ft 413 kts 328°
2026-04-22 11:16 39.35003 30.36477 35947 ft 414 kts 328°
2026-04-22 11:16 39.40158 30.33075 35939 ft 413 kts 327°
2026-04-22 11:17 39.45273 30.29696 35950 ft 413 kts 327°
2026-04-22 11:17 39.50381 30.26322 35944 ft 414 kts 328°
2026-04-22 11:18 39.55661 30.23301 35935 ft 416 kts 332°
2026-04-22 11:18 39.61064 30.20512 35931 ft 417 kts 332°
2026-04-22 11:19 39.66456 30.17723 35925 ft 418 kts 332°
2026-04-22 11:19 39.71864 30.14879 35921 ft 416 kts 332°
2026-04-22 11:20 39.77211 30.12033 35923 ft 418 kts 332°
2026-04-22 11:20 39.82587 30.09152 35915 ft 418 kts 332°
2026-04-22 11:21 39.87956 30.06268 35914 ft 417 kts 332°
2026-04-22 11:21 39.93338 30.03370 35913 ft 417 kts 331°
2026-04-22 11:22 39.98705 30.00474 35915 ft 417 kts 332°
2026-04-22 11:22 40.04040 29.97592 35911 ft 416 kts 331°
2026-04-22 11:23 40.09357 29.94712 35908 ft 417 kts 331°
2026-04-22 11:23 40.14716 29.91805 35917 ft 418 kts 331°
2026-04-22 11:24 40.20101 29.88880 35924 ft 417 kts 331°
2026-04-22 11:24 40.25458 29.85965 35931 ft 418 kts 331°
2026-04-22 11:25 40.30839 29.83032 35929 ft 417 kts 331°
2026-04-22 11:25 40.36196 29.80107 35947 ft 417 kts 331°
2026-04-22 11:26 40.41522 29.77194 35941 ft 417 kts 330°
2026-04-22 11:26 40.46895 29.74250 35951 ft 417 kts 330°
2026-04-22 11:27 40.52248 29.71312 35952 ft 416 kts 330°
2026-04-22 11:27 40.57567 29.68387 35956 ft 417 kts 330°
2026-04-22 11:28 40.62885 29.65400 35972 ft 412 kts 328°
2026-04-22 11:28 40.67831 29.61719 35980 ft 408 kts 319°
2026-04-22 11:29 40.72370 29.57250 35978 ft 404 kts 316°
2026-04-22 11:29 40.76735 29.52624 35983 ft 402 kts 315°
2026-04-22 11:30 40.81079 29.47982 36000 ft 403 kts 315°
2026-04-22 11:30 40.85435 29.43344 35991 ft 404 kts 315°
2026-04-22 11:31 40.89812 29.38699 36010 ft 403 kts 315°
2026-04-22 11:31 40.94181 29.34061 36005 ft 404 kts 315°
2026-04-22 11:32 40.98542 29.29429 36001 ft 400 kts 315°
2026-04-22 11:32 41.02879 29.24810 36019 ft 401 kts 315°
2026-04-22 11:33 41.07244 29.20153 36017 ft 402 kts 314°
2026-04-22 11:33 41.11456 29.15315 36032 ft 397 kts 309°
2026-04-22 11:34 41.14957 29.09804 36030 ft 390 kts 301°
2026-04-22 11:34 41.18003 29.03894 36028 ft 389 kts 298°
2026-04-22 11:35 41.20970 28.97902 36031 ft 389 kts 298°
2026-04-22 11:35 41.23941 28.91904 36040 ft 389 kts 298°
2026-04-22 11:36 41.26931 28.85881 36052 ft 390 kts 298°
2026-04-22 11:36 41.29908 28.79891 36039 ft 387 kts 298°
2026-04-22 11:37 41.32859 28.73944 36029 ft 390 kts 298°
2026-04-22 11:37 41.35841 28.67924 36032 ft 389 kts 298°
2026-04-22 11:38 41.38818 28.61905 36049 ft 389 kts 299°
2026-04-22 11:38 41.40303 28.58899 36339 ft 390 kts 299°
2026-04-22 11:38 41.43259 28.52907 36043 ft 382 kts 299°
2026-04-22 11:39 41.46172 28.46989 36047 ft 384 kts 298°
2026-04-22 11:39 41.49181 28.41083 36047 ft 389 kts 303°
2026-04-22 11:40 41.52816 28.35675 36049 ft 394 kts 309°
2026-04-22 11:40 41.56746 28.30569 36048 ft 392 kts 310°
2026-04-22 11:41 41.60667 28.25513 36051 ft 394 kts 309°
2026-04-22 11:41 41.64573 28.20416 36055 ft 394 kts 309°
2026-04-22 11:42 41.68472 28.15285 36051 ft 392 kts 309°
2026-04-22 11:42 41.72350 28.10153 36054 ft 394 kts 309°
2026-04-22 11:43 41.76241 28.04988 36063 ft 394 kts 309°
2026-04-22 11:43 41.80106 27.99851 36054 ft 392 kts 309°
2026-04-22 11:44 41.84003 27.94659 36049 ft 394 kts 309°
2026-04-22 11:44 41.87876 27.89496 36045 ft 392 kts 309°
2026-04-22 11:45 41.91730 27.84341 36044 ft 393 kts 309°
2026-04-22 11:45 41.95609 27.79146 36047 ft 394 kts 309°
2026-04-22 11:46 41.99250 27.73702 36035 ft 389 kts 303°
2026-04-22 11:46 42.02593 27.67971 36038 ft 389 kts 302°
2026-04-22 11:47 42.05898 27.62253 36038 ft 389 kts 303°
2026-04-22 11:47 42.09241 27.56535 36050 ft 389 kts 303°
2026-04-22 11:48 42.12623 27.50778 36039 ft 389 kts 303°
2026-04-22 11:48 42.15994 27.45048 36036 ft 390 kts 303°
2026-04-22 11:49 42.19360 27.39321 36035 ft 390 kts 303°
2026-04-22 11:49 42.22715 27.33602 36031 ft 391 kts 303°
2026-04-22 11:50 42.26102 27.27817 36031 ft 393 kts 303°
2026-04-22 11:50 42.29504 27.21993 36042 ft 393 kts 303°
2026-04-22 11:51 42.32874 27.16215 36043 ft 393 kts 303°
2026-04-22 11:51 42.36265 27.10386 36052 ft 395 kts 303°
2026-04-22 11:52 42.39657 27.04547 36047 ft 394 kts 303°
2026-04-22 11:52 42.43057 26.98681 36048 ft 396 kts 303°
2026-04-22 11:53 42.46433 26.92847 36046 ft 395 kts 303°
2026-04-22 11:53 42.49800 26.87020 36038 ft 394 kts 303°
2026-04-22 11:54 42.53198 26.81123 36047 ft 396 kts 303°
2026-04-22 11:54 42.56582 26.75239 36057 ft 397 kts 303°
2026-04-22 11:55 42.59985 26.69309 36041 ft 398 kts 303°
2026-04-22 11:55 42.63376 26.63393 36039 ft 399 kts 303°
2026-04-22 11:56 42.66784 26.57433 36027 ft 398 kts 303°
2026-04-22 11:56 42.70161 26.51513 36007 ft 398 kts 304°
2026-04-22 11:57 42.73560 26.45543 36000 ft 399 kts 304°
2026-04-22 11:57 42.76953 26.39576 35998 ft 400 kts 304°
2026-04-22 11:58 42.80369 26.33553 36010 ft 402 kts 303°
2026-04-22 11:58 42.83776 26.27535 35997 ft 400 kts 303°
2026-04-22 11:59 42.87165 26.21538 36011 ft 402 kts 303°
2026-04-22 11:59 42.90567 26.15503 35993 ft 400 kts 303°
2026-04-22 12:00 42.93975 26.09442 36011 ft 404 kts 303°
2026-04-22 12:00 42.97355 26.03424 36008 ft 402 kts 303°
2026-04-22 12:01 43.00765 25.97337 36032 ft 405 kts 303°
2026-04-22 12:01 43.04168 25.91253 36034 ft 404 kts 303°
2026-04-22 12:02 43.07592 25.85119 36042 ft 404 kts 303°
2026-04-22 12:02 43.11004 25.78993 36050 ft 404 kts 303°
2026-04-22 12:03 43.14417 25.72851 36061 ft 406 kts 303°
2026-04-22 12:03 43.17801 25.66661 36065 ft 405 kts 303°
2026-04-22 12:04 43.21104 25.60431 36065 ft 405 kts 302°
2026-04-22 12:04 43.24392 25.54200 36060 ft 405 kts 302°
2026-04-22 12:05 43.27687 25.47958 36056 ft 405 kts 303°
2026-04-22 12:05 43.31000 25.41681 36066 ft 405 kts 303°
2026-04-22 12:06 43.34299 25.35426 36064 ft 405 kts 303°
2026-04-22 12:06 43.37616 25.29122 36059 ft 406 kts 302°
2026-04-22 12:07 43.40915 25.22840 36056 ft 408 kts 302°
2026-04-22 12:07 43.44218 25.16538 36057 ft 407 kts 303°
2026-04-22 12:08 43.47533 25.10199 36056 ft 407 kts 303°
2026-04-22 12:08 43.50834 25.03874 36053 ft 407 kts 303°
2026-04-22 12:09 43.54123 24.97558 36057 ft 408 kts 303°
2026-04-22 12:09 43.57425 24.91204 36047 ft 408 kts 303°
2026-04-22 12:10 43.60717 24.84856 36049 ft 409 kts 303°
2026-04-22 12:10 43.64016 24.78481 36051 ft 408 kts 303°
2026-04-22 12:11 43.67308 24.72104 36052 ft 409 kts 303°
2026-04-22 12:11 43.70616 24.65683 36053 ft 410 kts 303°
2026-04-22 12:12 43.73921 24.59253 36052 ft 410 kts 303°
2026-04-22 12:12 43.77419 24.53046 36048 ft 412 kts 308°
2026-04-22 12:13 43.81288 24.47190 36051 ft 414 kts 310°
2026-04-22 12:13 43.85260 24.41350 36049 ft 413 kts 310°
2026-04-22 12:14 43.89176 24.35552 36052 ft 413 kts 310°
2026-04-22 12:14 43.93089 24.29699 36047 ft 412 kts 310°
2026-04-22 12:15 43.96962 24.23865 36051 ft 414 kts 310°
2026-04-22 12:15 44.00858 24.17973 36049 ft 414 kts 310°
2026-04-22 12:16 44.04725 24.12111 36048 ft 414 kts 310°
2026-04-22 12:16 44.08643 24.06157 36050 ft 415 kts 310°
2026-04-22 12:17 44.12521 24.00250 36051 ft 414 kts 310°
2026-04-22 12:17 44.16387 23.94350 36048 ft 413 kts 310°
2026-04-22 12:18 44.20261 23.88426 36045 ft 414 kts 310°
2026-04-22 12:18 44.24141 23.82479 36048 ft 416 kts 310°
2026-04-22 12:19 44.28029 23.76506 36047 ft 416 kts 310°
2026-04-22 12:19 44.31924 23.70512 36046 ft 416 kts 310°
2026-04-22 12:20 44.35824 23.64498 36045 ft 416 kts 310°
2026-04-22 12:20 44.39699 23.58507 36040 ft 417 kts 310°
2026-04-22 12:21 44.43568 23.52513 36036 ft 417 kts 310°
2026-04-22 12:21 44.47468 23.46460 36027 ft 417 kts 310°
2026-04-22 12:22 44.51342 23.40434 36029 ft 417 kts 310°
2026-04-22 12:22 44.55208 23.34408 36023 ft 418 kts 310°
2026-04-22 12:23 44.59111 23.28311 36022 ft 418 kts 310°
2026-04-22 12:23 44.62983 23.22247 36013 ft 418 kts 310°
2026-04-22 12:24 44.66850 23.16180 36019 ft 419 kts 310°
2026-04-22 12:24 44.70728 23.10082 36015 ft 419 kts 310°
2026-04-22 12:25 44.74601 23.03977 36024 ft 419 kts 310°
2026-04-22 12:25 44.78485 22.97843 36023 ft 419 kts 310°
2026-04-22 12:26 44.82353 22.91721 36025 ft 419 kts 310°
2026-04-22 12:26 44.86240 22.85554 36027 ft 420 kts 310°
2026-04-22 12:27 44.89968 22.79237 36032 ft 420 kts 307°
2026-04-22 12:27 44.93493 22.72722 36025 ft 420 kts 306°
2026-04-22 12:28 44.97015 22.66156 36014 ft 421 kts 306°
2026-04-22 12:28 45.00576 22.59561 36012 ft 421 kts 307°
2026-04-22 12:29 45.04126 22.53019 36010 ft 421 kts 307°
2026-04-22 12:29 45.07687 22.46463 36003 ft 421 kts 307°
2026-04-22 12:30 45.13030 22.36606 36016 ft 422 kts 307°
2026-04-22 12:31 45.16598 22.30009 36023 ft 422 kts 306°
2026-04-22 12:31 45.20169 22.23389 36030 ft 423 kts 306°
2026-04-22 12:32 45.23717 22.16798 36030 ft 423 kts 307°
2026-04-22 12:32 45.29069 22.06826 36038 ft 423 kts 307°
2026-04-22 12:33 45.32606 22.00214 36046 ft 422 kts 307°
2026-04-22 12:33 45.36149 21.93578 36053 ft 424 kts 307°
2026-04-22 12:34 45.39694 21.86923 36060 ft 423 kts 307°
2026-04-22 12:34 45.43247 21.80237 36068 ft 424 kts 307°
2026-04-22 12:35 45.46785 21.73563 36070 ft 424 kts 307°
2026-04-22 12:35 45.50330 21.66859 36074 ft 426 kts 307°
2026-04-22 12:36 45.53880 21.60131 36073 ft 425 kts 307°
2026-04-22 12:36 45.57413 21.53420 36072 ft 426 kts 307°
2026-04-22 12:37 45.60955 21.46676 36073 ft 425 kts 307°
2026-04-22 12:37 45.64498 21.39914 36080 ft 425 kts 307°
2026-04-22 12:38 45.68035 21.33145 36085 ft 426 kts 307°
2026-04-22 12:38 45.71567 21.26373 36090 ft 426 kts 307°
2026-04-22 12:39 45.76896 21.16123 36084 ft 427 kts 307°
2026-04-22 12:40 45.80437 21.09290 36091 ft 427 kts 307°
2026-04-22 12:40 45.83951 21.02493 36094 ft 426 kts 307°
2026-04-22 12:41 45.87484 20.95643 36091 ft 427 kts 307°
2026-04-22 12:41 45.90994 20.88821 36097 ft 428 kts 307°
2026-04-22 12:42 45.94532 20.81928 36094 ft 428 kts 307°
2026-04-22 12:42 45.98056 20.75047 36094 ft 428 kts 307°
2026-04-22 12:43 46.01550 20.68207 36099 ft 428 kts 307°
2026-04-22 12:43 46.05083 20.61275 36101 ft 428 kts 307°
2026-04-22 12:44 46.08581 20.54393 36102 ft 428 kts 307°
2026-04-22 12:44 46.12108 20.47437 36097 ft 429 kts 307°
2026-04-22 12:45 46.15615 20.40504 36107 ft 429 kts 307°
2026-04-22 12:45 46.19193 20.33659 36104 ft 429 kts 308°
2026-04-22 12:46 46.22860 20.26888 36113 ft 428 kts 309°
2026-04-22 12:46 46.26518 20.20140 36107 ft 429 kts 309°
2026-04-22 12:47 46.30188 20.13325 36113 ft 429 kts 308°
2026-04-22 12:47 46.33835 20.06512 36110 ft 430 kts 308°
2026-04-22 12:48 46.37477 19.99681 36114 ft 430 kts 309°
2026-04-22 12:48 46.41112 19.92840 36116 ft 430 kts 309°
2026-04-22 12:49 46.44752 19.85972 36111 ft 430 kts 309°
2026-04-22 12:49 46.48391 19.79087 36120 ft 430 kts 309°
2026-04-22 12:50 46.52029 19.72189 36117 ft 431 kts 309°
2026-04-22 12:50 46.55638 19.65331 36118 ft 430 kts 309°
2026-04-22 12:51 46.59255 19.58439 36120 ft 431 kts 309°
2026-04-22 12:51 46.62876 19.51519 36118 ft 431 kts 309°
2026-04-22 12:52 46.66507 19.44566 36128 ft 431 kts 309°
2026-04-22 12:52 46.70121 19.37628 36128 ft 432 kts 309°
2026-04-22 12:53 46.73733 19.30675 36127 ft 431 kts 308°
2026-04-22 12:53 46.77341 19.23714 36130 ft 431 kts 308°
2026-04-22 12:54 46.80942 19.16746 36131 ft 431 kts 308°
2026-04-22 12:54 46.84535 19.09778 36132 ft 432 kts 308°
2026-04-22 12:55 46.88137 19.02774 36133 ft 432 kts 308°
2026-04-22 12:55 46.91745 18.95744 36136 ft 433 kts 308°
2026-04-22 12:56 46.95336 18.88727 36127 ft 432 kts 309°
2026-04-22 12:56 46.98924 18.81698 36133 ft 432 kts 309°
2026-04-22 12:57 47.02503 18.74668 36133 ft 432 kts 309°
2026-04-22 12:57 47.06080 18.67625 36130 ft 432 kts 309°
2026-04-22 12:58 47.09657 18.60564 36130 ft 433 kts 309°
2026-04-22 12:58 47.13258 18.53436 36130 ft 433 kts 309°
2026-04-22 12:59 47.16829 18.46352 36130 ft 433 kts 309°
2026-04-22 12:59 47.20411 18.39227 36130 ft 432 kts 309°
2026-04-22 13:00 47.23961 18.32147 36130 ft 433 kts 308°
2026-04-22 13:00 47.27545 18.24981 36127 ft 433 kts 308°
2026-04-22 13:01 47.31092 18.17873 36127 ft 433 kts 308°
2026-04-22 13:01 47.34651 18.10719 36128 ft 433 kts 308°
2026-04-22 13:02 47.38199 18.03569 36132 ft 434 kts 308°
2026-04-22 13:02 47.41747 17.96402 36144 ft 433 kts 308°
2026-04-22 13:03 47.45279 17.89246 36147 ft 434 kts 308°
2026-04-22 13:03 47.48822 17.82052 36149 ft 434 kts 308°
2026-04-22 13:04 47.52356 17.74855 36163 ft 433 kts 308°
2026-04-22 13:04 47.55876 17.67671 36159 ft 433 kts 308°
2026-04-22 13:05 47.59393 17.60471 36163 ft 433 kts 308°
2026-04-22 13:05 47.62936 17.53202 36159 ft 434 kts 308°
2026-04-22 13:06 47.66439 17.45993 36160 ft 435 kts 308°
2026-04-22 13:06 47.69975 17.38700 36160 ft 434 kts 308°
2026-04-22 13:07 47.73482 17.31446 36157 ft 435 kts 308°
2026-04-22 13:07 47.76991 17.24168 36162 ft 434 kts 308°
2026-04-22 13:08 47.80505 17.16860 36164 ft 435 kts 308°
2026-04-22 13:08 47.84138 17.09638 36172 ft 434 kts 312°
2026-04-22 13:09 47.88081 17.02943 36171 ft 433 kts 315°
2026-04-22 13:09 47.92164 16.96328 36176 ft 433 kts 315°
2026-04-22 13:10 47.96241 16.89708 36180 ft 434 kts 315°
2026-04-22 13:10 48.00279 16.83086 36178 ft 434 kts 315°
2026-04-22 13:11 48.04327 16.76394 36188 ft 433 kts 315°
2026-04-22 13:11 48.08354 16.69702 36188 ft 434 kts 315°
2026-04-22 13:12 48.12343 16.63049 36192 ft 434 kts 315°
2026-04-22 13:12 48.16286 16.56158 36201 ft 435 kts 312°
2026-04-22 13:13 48.19995 16.49021 36193 ft 436 kts 311°
2026-04-22 13:13 48.23670 16.41821 36203 ft 435 kts 311°
2026-04-22 13:14 48.27357 16.34638 36208 ft 435 kts 310°
2026-04-22 13:14 48.31073 16.27437 36195 ft 436 kts 311°
2026-04-22 13:15 48.34766 16.20287 36195 ft 435 kts 311°
2026-04-22 13:15 48.38461 16.13127 36204 ft 436 kts 311°
2026-04-22 13:16 48.42163 16.05939 36194 ft 436 kts 311°
2026-04-22 13:16 48.45871 15.98719 36202 ft 436 kts 311°
2026-04-22 13:17 48.49571 15.91498 36205 ft 437 kts 311°
2026-04-22 13:17 48.53277 15.84243 36204 ft 436 kts 311°
2026-04-22 13:18 48.56958 15.77017 36199 ft 436 kts 311°
2026-04-22 13:18 48.60631 15.69786 36207 ft 435 kts 311°
2026-04-22 13:19 48.64308 15.62531 36197 ft 436 kts 311°
2026-04-22 13:19 48.67976 15.55273 36197 ft 436 kts 311°
2026-04-22 13:20 48.71636 15.48012 36194 ft 436 kts 311°
2026-04-22 13:20 48.75322 15.40680 36196 ft 437 kts 311°
2026-04-22 13:21 48.78982 15.33380 36204 ft 437 kts 310°
2026-04-22 13:21 48.82647 15.26048 36214 ft 437 kts 310°
2026-04-22 13:22 48.86303 15.18720 36212 ft 437 kts 310°
2026-04-22 13:22 48.89954 15.11376 36216 ft 436 kts 311°
2026-04-22 13:23 48.93710 15.04146 36223 ft 436 kts 313°
2026-04-22 13:23 48.97545 14.97028 36227 ft 435 kts 313°
2026-04-22 13:24 49.01383 14.89902 36226 ft 436 kts 313°
2026-04-22 13:24 49.05195 14.82773 36233 ft 436 kts 313°
2026-04-22 13:25 49.09027 14.75557 36229 ft 436 kts 313°
2026-04-22 13:25 49.12841 14.68342 36231 ft 436 kts 313°
2026-04-22 13:26 49.16624 14.61159 36231 ft 435 kts 313°
2026-04-22 13:26 49.20431 14.53910 36233 ft 436 kts 313°
2026-04-22 13:27 49.24204 14.46707 36237 ft 436 kts 313°
2026-04-22 13:27 49.27981 14.39476 36232 ft 437 kts 313°
2026-04-22 13:28 49.31707 14.32323 36238 ft 437 kts 312°
2026-04-22 13:28 49.35196 14.25610 36238 ft 437 kts 312°
2026-04-22 13:29 49.38924 14.18416 36241 ft 436 kts 312°
2026-04-22 13:29 49.42691 14.11127 36246 ft 436 kts 312°
2026-04-22 13:30 49.46445 14.03842 36243 ft 436 kts 312°
2026-04-22 13:30 49.50203 13.96530 36253 ft 437 kts 312°
2026-04-22 13:31 49.53986 13.89150 36250 ft 437 kts 312°
2026-04-22 13:31 49.57739 13.81807 36243 ft 436 kts 312°
2026-04-22 13:32 49.61464 13.74498 36244 ft 437 kts 312°
2026-04-22 13:32 49.65213 13.67123 36249 ft 436 kts 312°
2026-04-22 13:33 49.68960 13.59733 36252 ft 436 kts 312°
2026-04-22 13:33 49.72688 13.52358 36257 ft 437 kts 312°
2026-04-22 13:34 49.76413 13.44969 36264 ft 438 kts 312°
2026-04-22 13:34 49.80140 13.37555 36261 ft 437 kts 312°
2026-04-22 13:35 49.83863 13.30125 36260 ft 437 kts 311°
2026-04-22 13:35 49.84430 13.28993 36257 ft 437 kts 311°
2026-04-22 13:36 49.87870 13.22110 36250 ft 437 kts 311°
2026-04-22 13:36 49.91560 13.14705 36250 ft 437 kts 311°
2026-04-22 13:37 49.95273 13.07234 36247 ft 438 kts 311°
2026-04-22 13:37 49.98986 12.99741 36245 ft 438 kts 311°
2026-04-22 13:38 50.02689 12.92249 36258 ft 437 kts 311°
2026-04-22 13:38 50.08219 12.81018 36272 ft 437 kts 311°
2026-04-22 13:39 50.11888 12.73538 36260 ft 438 kts 311°
2026-04-22 13:39 50.15597 12.65958 36264 ft 438 kts 311°
2026-04-22 13:40 50.19260 12.58449 36273 ft 438 kts 311°
2026-04-22 13:40 50.22940 12.50884 36271 ft 438 kts 311°
2026-04-22 13:41 50.26629 12.43279 36273 ft 438 kts 311°
2026-04-22 13:41 50.30284 12.35734 36273 ft 438 kts 311°
2026-04-22 13:42 50.33981 12.28172 36276 ft 438 kts 311°
2026-04-22 13:42 50.37695 12.20594 36285 ft 439 kts 311°
2026-04-22 13:43 50.41370 12.13071 36290 ft 439 kts 311°
2026-04-22 13:43 50.45061 12.05482 36299 ft 438 kts 311°
2026-04-22 13:44 50.48748 11.97879 36296 ft 438 kts 311°
2026-04-22 13:44 50.52435 11.90249 36294 ft 439 kts 311°
2026-04-22 13:45 50.56090 11.82662 36294 ft 439 kts 311°
2026-04-22 13:45 50.59762 11.75019 36293 ft 438 kts 311°
2026-04-22 13:46 50.63414 11.67392 36299 ft 438 kts 311°
2026-04-22 13:46 50.67064 11.59750 36298 ft 438 kts 311°
2026-04-22 13:47 50.70731 11.52050 36306 ft 438 kts 311°
2026-04-22 13:47 50.74374 11.44379 36300 ft 439 kts 311°
2026-04-22 13:48 50.78006 11.36706 36302 ft 438 kts 311°
2026-04-22 13:48 50.81649 11.28987 36303 ft 439 kts 310°
2026-04-22 13:49 50.85290 11.21250 36305 ft 438 kts 310°
2026-04-22 13:49 50.88920 11.13514 36321 ft 439 kts 310°
2026-04-22 13:50 50.92530 11.05798 36322 ft 439 kts 310°
2026-04-22 13:50 50.96160 10.98014 36338 ft 440 kts 310°
2026-04-22 13:51 50.99789 10.90212 36335 ft 439 kts 310°
2026-04-22 13:51 51.03377 10.82469 36322 ft 438 kts 310°
2026-04-22 13:52 51.06989 10.74659 36318 ft 438 kts 310°
2026-04-22 13:52 51.10596 10.66835 36312 ft 438 kts 310°
2026-04-22 13:53 51.14189 10.59015 36310 ft 438 kts 310°
2026-04-22 13:53 51.17753 10.51236 36317 ft 438 kts 310°
2026-04-22 13:54 51.21358 10.43345 36315 ft 438 kts 310°
2026-04-22 13:54 51.24735 10.35276 36312 ft 441 kts 303°
2026-04-22 13:55 51.27358 10.26420 36311 ft 446 kts 295°
2026-04-22 13:55 51.29601 10.17192 36317 ft 446 kts 294°
2026-04-22 13:56 51.31775 10.07941 36319 ft 446 kts 294°
2026-04-22 13:56 51.33959 9.98669 36321 ft 445 kts 294°
2026-04-22 13:57 51.36144 9.89446 36320 ft 445 kts 294°
2026-04-22 13:57 51.38340 9.80190 36318 ft 446 kts 295°
2026-04-22 13:58 51.40539 9.70901 36322 ft 447 kts 295°
2026-04-22 13:58 51.42720 9.61655 36325 ft 446 kts 294°
2026-04-22 13:59 51.44903 9.52364 36334 ft 445 kts 295°
2026-04-22 13:59 51.47076 9.43077 36334 ft 445 kts 294°
2026-04-22 14:00 51.49229 9.33837 36335 ft 445 kts 294°
2026-04-22 14:00 51.51397 9.24494 36332 ft 446 kts 294°
2026-04-22 14:01 51.53536 9.15230 36333 ft 445 kts 294°
2026-04-22 14:01 51.55683 9.05889 36334 ft 445 kts 294°
2026-04-22 14:02 51.57816 8.96571 36339 ft 444 kts 294°
2026-04-22 14:02 51.59938 8.87265 36332 ft 444 kts 294°
2026-04-22 14:03 51.62049 8.77966 36336 ft 444 kts 294°
2026-04-22 14:03 51.64148 8.68678 36341 ft 444 kts 294°
2026-04-22 14:04 51.66247 8.59347 36341 ft 444 kts 294°
2026-04-22 14:04 51.68335 8.50028 36336 ft 444 kts 293°
2026-04-22 14:05 51.70428 8.40638 36335 ft 444 kts 294°
2026-04-22 14:06 51.73546 8.26571 36343 ft 445 kts 292°
2026-04-22 14:06 51.75603 8.17235 36346 ft 444 kts 292°
2026-04-22 14:07 51.77672 8.07811 36342 ft 444 kts 292°
2026-04-22 14:07 51.79720 7.98438 36351 ft 444 kts 292°
2026-04-22 14:08 51.81753 7.89088 36350 ft 445 kts 292°
2026-04-22 14:08 51.83801 7.79629 36350 ft 444 kts 292°
2026-04-22 14:09 51.85877 7.70266 36352 ft 444 kts 295°
2026-04-22 14:09 51.88375 7.61210 36356 ft 441 kts 299°
2026-04-22 14:10 51.91064 7.52309 36359 ft 442 kts 300°
2026-04-22 14:10 51.93746 7.43459 36359 ft 440 kts 300°
2026-04-22 14:11 51.96415 7.34537 36353 ft 441 kts 298°
2026-04-22 14:11 51.99082 7.25517 36359 ft 441 kts 298°
2026-04-22 14:12 52.01699 7.16586 36017 ft 440 kts 298°
2026-04-22 14:12 52.02990 7.12159 36235 ft 437 kts 298°
2026-04-22 14:12 52.04302 7.07648 36358 ft 438 kts 298°
2026-04-22 14:13 52.06914 6.98653 36352 ft 445 kts 298°
2026-04-22 14:13 52.09536 6.89536 36346 ft 443 kts 298°
2026-04-22 14:14 52.12112 6.80473 36345 ft 443 kts 298°
2026-04-22 14:14 52.14566 6.71362 36344 ft 444 kts 294°
2026-04-22 14:15 52.16693 6.61936 36346 ft 445 kts 292°
2026-04-22 14:15 52.18732 6.52439 36348 ft 444 kts 292°
2026-04-22 14:16 52.20784 6.42902 36348 ft 444 kts 293°
2026-04-22 14:16 52.22832 6.33444 36350 ft 443 kts 292°
2026-04-22 14:17 52.24876 6.24056 36360 ft 443 kts 293°
2026-04-22 14:17 52.27223 6.14868 36348 ft 440 kts 297°
2026-04-22 14:18 52.29788 6.05797 36357 ft 440 kts 298°
2026-04-22 14:18 52.32364 5.96692 36351 ft 440 kts 297°
2026-04-22 14:19 52.34889 5.87614 36364 ft 440 kts 297°
2026-04-22 14:19 52.37854 5.78913 36369 ft 435 kts 308°
2026-04-22 14:20 52.43441 5.67345 36376 ft 433 kts 313°
2026-04-22 14:20 52.47295 5.59796 36373 ft 432 kts 313°
2026-04-22 14:21 52.53083 5.48472 36381 ft 433 kts 313°
2026-04-22 14:22 52.58861 5.37148 36377 ft 432 kts 313°
2026-04-22 14:23 52.63778 5.24695 36391 ft 437 kts 301°
2026-04-22 14:23 52.66674 5.15872 36388 ft 437 kts 301°
2026-04-22 14:24 52.69573 5.07155 36388 ft 437 kts 302°
2026-04-22 14:24 52.72547 4.98424 36391 ft 437 kts 302°
2026-04-22 14:25 52.75550 4.89705 36393 ft 436 kts 302°
2026-04-22 14:25 52.78534 4.81056 36400 ft 435 kts 303°
2026-04-22 14:26 52.81516 4.72405 36403 ft 435 kts 302°
2026-04-22 14:26 52.84491 4.63748 36402 ft 434 kts 302°
2026-04-22 14:27 52.87466 4.55057 36401 ft 434 kts 302°
2026-04-22 14:27 52.90419 4.46403 36409 ft 434 kts 302°
2026-04-22 14:28 52.93366 4.37734 36396 ft 434 kts 303°
2026-04-22 14:28 52.96313 4.29036 36396 ft 433 kts 302°
2026-04-22 14:29 52.99239 4.20371 36413 ft 433 kts 302°
2026-04-22 14:29 53.02158 4.11693 36425 ft 431 kts 302°
2026-04-22 14:30 53.05067 4.03012 36425 ft 432 kts 302°
2026-04-22 14:30 53.07980 3.94295 36424 ft 432 kts 302°
2026-04-22 14:31 53.10855 3.85658 36425 ft 431 kts 302°
2026-04-22 14:31 53.13753 3.76919 36430 ft 432 kts 302°
2026-04-22 14:32 53.16644 3.68173 36430 ft 432 kts 302°
2026-04-22 14:32 53.19537 3.59390 36435 ft 433 kts 302°
2026-04-22 14:33 53.22418 3.50612 36431 ft 433 kts 302°
2026-04-22 14:33 53.25293 3.41847 36428 ft 432 kts 302°
2026-04-22 14:34 53.28380 3.33445 36423 ft 431 kts 305°
2026-04-22 14:34 53.31674 3.25085 36421 ft 432 kts 306°
2026-04-22 14:35 53.34957 3.16731 36424 ft 432 kts 305°
2026-04-22 14:35 53.38217 3.08321 36423 ft 432 kts 305°
2026-04-22 14:36 53.41450 2.99893 36425 ft 433 kts 305°
2026-04-22 14:36 53.44674 2.91427 36421 ft 432 kts 305°
2026-04-22 14:37 53.47883 2.82960 36420 ft 433 kts 304°
2026-04-22 14:37 53.51094 2.74455 36422 ft 433 kts 304°
2026-04-22 14:38 53.54310 2.65904 36420 ft 433 kts 304°
2026-04-22 14:38 53.57511 2.57361 36422 ft 433 kts 304°
2026-04-22 14:39 53.60715 2.48789 36424 ft 434 kts 304°
2026-04-22 14:39 53.63906 2.40220 36429 ft 435 kts 304°
2026-04-22 14:40 53.68649 2.27424 36433 ft 436 kts 303°
2026-04-22 14:40 53.71841 2.18780 36433 ft 436 kts 303°
2026-04-22 14:41 53.75033 2.10102 36434 ft 435 kts 303°
2026-04-22 14:41 53.78201 2.01459 36436 ft 435 kts 303°
2026-04-22 14:42 53.81361 1.92809 36437 ft 436 kts 303°
2026-04-22 14:42 53.84527 1.84113 36440 ft 435 kts 303°
2026-04-22 14:43 53.87684 1.75410 36446 ft 435 kts 303°
2026-04-22 14:43 53.90839 1.66685 36448 ft 435 kts 303°
2026-04-22 14:44 53.93965 1.58009 36455 ft 434 kts 303°
2026-04-22 14:44 53.97089 1.49306 36463 ft 433 kts 303°
2026-04-22 14:45 54.00219 1.40556 36464 ft 432 kts 303°
2026-04-22 14:45 54.03314 1.31876 36462 ft 431 kts 302°
2026-04-22 14:46 54.06396 1.23200 36452 ft 431 kts 302°
2026-04-22 14:46 54.09481 1.14488 36443 ft 431 kts 302°
2026-04-22 14:47 54.12547 1.05795 36449 ft 430 kts 302°
2026-04-22 14:47 54.15597 0.97119 36448 ft 425 kts 302°
2026-04-22 14:48 54.18624 0.88477 36448 ft 425 kts 302°
2026-04-22 14:48 54.21651 0.79808 36448 ft 425 kts 302°
2026-04-22 14:49 54.24658 0.71164 36442 ft 424 kts 302°
2026-04-22 14:49 54.27660 0.62503 36456 ft 426 kts 302°
2026-04-22 14:50 54.30656 0.53830 36451 ft 424 kts 302°
2026-04-22 14:50 54.33630 0.45191 36455 ft 425 kts 302°
2026-04-22 14:51 54.36604 0.36518 36457 ft 423 kts 302°
2026-04-22 14:51 54.39582 0.27806 36460 ft 423 kts 301°
2026-04-22 14:52 54.42551 0.19088 36467 ft 424 kts 301°
2026-04-22 14:52 54.45498 0.10406 36454 ft 424 kts 301°
2026-04-22 14:53 54.48452 0.01670 36465 ft 425 kts 301°
2026-04-22 14:53 54.51402 -0.07083 36475 ft 425 kts 301°
2026-04-22 14:54 54.54355 -0.15879 36476 ft 424 kts 301°
2026-04-22 14:54 54.57283 -0.24631 36468 ft 424 kts 300°
2026-04-22 14:55 54.60218 -0.33436 36469 ft 423 kts 301°
2026-04-22 14:55 54.63126 -0.42192 36465 ft 424 kts 300°
2026-04-22 14:56 54.66053 -0.51035 36468 ft 424 kts 301°
2026-04-22 14:56 54.68951 -0.59823 36467 ft 425 kts 301°
2026-04-22 14:57 54.71863 -0.68686 36457 ft 424 kts 300°
2026-04-22 14:57 54.74766 -0.77555 36460 ft 425 kts 300°
2026-04-22 14:58 54.77658 -0.86419 36464 ft 423 kts 300°
2026-04-22 14:58 54.80538 -0.95283 36464 ft 423 kts 299°
2026-04-22 14:59 54.83402 -1.04125 36479 ft 424 kts 299°
2026-04-22 14:59 54.86268 -1.13010 36300 ft 424 kts 300°
2026-04-22 15:00 54.87656 -1.17323 35990 ft 422 kts 300°
2026-04-22 15:00 54.89080 -1.21757 35500 ft 424 kts 300°
2026-04-22 15:00 54.90523 -1.26260 34886 ft 426 kts 300°
2026-04-22 15:00 54.91937 -1.30676 34298 ft 425 kts 300°
2026-04-22 15:01 54.93375 -1.35180 33724 ft 423 kts 300°
2026-04-22 15:01 54.94792 -1.39623 33180 ft 420 kts 300°
2026-04-22 15:01 54.96189 -1.44013 32641 ft 416 kts 300°
2026-04-22 15:01 54.97569 -1.48357 32105 ft 403 kts 299°
2026-04-22 15:02 54.98877 -1.52487 31624 ft 389 kts 299°
2026-04-22 15:02 55.00157 -1.56533 31161 ft 378 kts 299°
2026-04-22 15:02 55.01416 -1.60513 30641 ft 375 kts 299°
2026-04-22 15:02 55.02669 -1.64485 30142 ft 371 kts 299°
2026-04-22 15:03 55.03898 -1.68383 29668 ft 367 kts 298°
2026-04-22 15:03 55.05119 -1.72267 29197 ft 363 kts 298°
2026-04-22 15:03 55.06316 -1.76080 28734 ft 359 kts 298°
2026-04-22 15:03 55.07491 -1.79830 28284 ft 355 kts 297°
2026-04-22 15:04 55.08671 -1.83600 27815 ft 351 kts 298°
2026-04-22 15:04 55.09817 -1.87271 27372 ft 347 kts 297°
2026-04-22 15:04 55.10923 -1.90816 26941 ft 345 kts 297°
2026-04-22 15:04 55.12074 -1.94511 26528 ft 347 kts 297°
2026-04-22 15:05 55.13221 -1.98118 26286 ft 342 kts 298°
2026-04-22 15:05 55.14402 -2.01721 25614 ft 345 kts 299°
2026-04-22 15:05 55.15610 -2.05358 25042 ft 345 kts 299°
2026-04-22 15:05 55.16798 -2.08925 24530 ft 343 kts 299°
2026-04-22 15:06 55.17603 -2.11349 24220 ft 341 kts 299°
2026-04-22 15:06 55.19170 -2.16089 23557 ft 338 kts 298°
2026-04-22 15:06 55.20333 -2.19625 22988 ft 339 kts 298°
2026-04-22 15:06 55.21513 -2.23221 22474 ft 338 kts 298°
2026-04-22 15:07 55.22673 -2.26765 21931 ft 339 kts 298°
2026-04-22 15:07 55.23829 -2.30307 21411 ft 339 kts 298°
2026-04-22 15:07 55.25010 -2.33929 20883 ft 339 kts 298°
2026-04-22 15:07 55.26172 -2.37500 20366 ft 338 kts 298°
2026-04-22 15:08 55.27329 -2.41060 19874 ft 338 kts 298°
2026-04-22 15:08 55.28474 -2.44588 19347 ft 339 kts 298°
2026-04-22 15:08 55.29635 -2.48174 18864 ft 337 kts 298°
2026-04-22 15:08 55.30794 -2.51759 18344 ft 338 kts 298°
2026-04-22 15:09 55.31952 -2.55343 17856 ft 337 kts 298°
2026-04-22 15:09 55.33101 -2.58909 17423 ft 334 kts 298°
2026-04-22 15:09 55.34231 -2.62415 16921 ft 334 kts 298°
2026-04-22 15:09 55.35368 -2.65949 16478 ft 333 kts 297°
2026-04-22 15:10 55.36507 -2.69498 16019 ft 331 kts 297°
2026-04-22 15:10 55.37630 -2.72997 15578 ft 329 kts 297°
2026-04-22 15:10 55.38752 -2.76499 15139 ft 327 kts 297°
2026-04-22 15:10 55.39851 -2.79938 14719 ft 325 kts 297°
2026-04-22 15:11 55.40964 -2.83425 14261 ft 324 kts 297°
2026-04-22 15:11 55.42060 -2.86860 13825 ft 323 kts 297°
2026-04-22 15:11 55.43142 -2.90260 13396 ft 322 kts 297°
2026-04-22 15:11 55.44232 -2.93687 12979 ft 320 kts 297°
2026-04-22 15:12 55.45382 -2.97080 12518 ft 320 kts 304°
2026-04-22 15:12 55.46867 -2.99928 12185 ft 315 kts 324°
2026-04-22 15:12 55.48788 -3.01593 11998 ft 304 kts 342°
2026-04-22 15:12 55.50776 -3.02617 11767 ft 297 kts 346°
2026-04-22 15:13 55.52770 -3.03529 11439 ft 294 kts 346°
2026-04-22 15:13 55.54728 -3.04477 11097 ft 292 kts 345°
2026-04-22 15:13 55.56659 -3.05478 10731 ft 291 kts 345°
2026-04-22 15:13 55.58588 -3.06525 10371 ft 289 kts 344°
2026-04-22 15:14 55.60495 -3.07584 10034 ft 287 kts 343°
2026-04-22 15:14 55.62336 -3.08966 9646 ft 288 kts 330°
2026-04-22 15:14 55.63785 -3.11322 9261 ft 288 kts 301°
2026-04-22 15:14 55.64420 -3.14618 8951 ft 281 kts 272°
2026-04-22 15:15 55.64257 -3.17835 8766 ft 269 kts 253°
2026-04-22 15:15 55.63608 -3.20911 8400 ft 265 kts 236°
2026-04-22 15:15 55.62379 -3.23220 8049 ft 256 kts 209°
2026-04-22 15:15 55.60831 -3.24744 7713 ft 253 kts 204°
2026-04-22 15:16 55.59262 -3.26177 7442 ft 250 kts 204°
2026-04-22 15:16 55.57755 -3.27605 7440 ft 251 kts 205°
2026-04-22 15:16 55.56206 -3.29109 7431 ft 253 kts 206°
2026-04-22 15:16 55.54675 -3.30654 7422 ft 253 kts 210°
2026-04-22 15:17 55.53364 -3.32626 7417 ft 251 kts 231°
2026-04-22 15:17 55.52728 -3.35484 7426 ft 250 kts 265°
2026-04-22 15:17 55.52994 -3.38466 7433 ft 247 kts 293°
2026-04-22 15:17 55.53867 -3.41039 7430 ft 248 kts 312°
2026-04-22 15:18 55.55123 -3.43120 7437 ft 248 kts 323°
2026-04-22 15:18 55.56470 -3.44983 7421 ft 247 kts 324°
2026-04-22 15:18 55.57829 -3.46860 7426 ft 248 kts 323°
2026-04-22 15:18 55.59170 -3.48771 7432 ft 247 kts 322°
2026-04-22 15:19 55.60500 -3.50700 7435 ft 248 kts 322°
2026-04-22 15:19 55.61821 -3.52629 7430 ft 248 kts 322°
2026-04-22 15:19 55.63164 -3.54592 7435 ft 248 kts 322°
2026-04-22 15:19 55.64491 -3.56534 7431 ft 247 kts 321°
2026-04-22 15:20 55.65339 -3.57864 7244 ft 250 kts 319°
2026-04-22 15:20 55.67034 -3.60659 6856 ft 248 kts 320°
2026-04-22 15:20 55.68331 -3.62681 6592 ft 246 kts 321°
2026-04-22 15:20 55.69622 -3.64606 6333 ft 244 kts 322°
2026-04-22 15:21 55.70911 -3.66499 6084 ft 242 kts 322°
2026-04-22 15:21 55.72198 -3.68387 5838 ft 241 kts 322°
2026-04-22 15:21 55.73495 -3.70292 5592 ft 240 kts 322°
2026-04-22 15:21 55.74690 -3.72051 5356 ft 239 kts 322°
2026-04-22 15:22 55.76002 -3.73985 5117 ft 236 kts 322°
2026-04-22 15:22 55.77240 -3.75824 5027 ft 226 kts 325°
2026-04-22 15:22 55.78589 -3.76993 4861 ft 211 kts 357°
2026-04-22 15:22 55.79979 -3.76814 4732 ft 197 kts 21°
2026-04-22 15:23 55.81199 -3.75894 4574 ft 185 kts 37°
2026-04-22 15:23 55.82119 -3.74390 4395 ft 176 kts 56°
2026-04-22 15:23 55.82808 -3.72658 4231 ft 168 kts 59°
2026-04-22 15:23 55.83427 -3.70972 4089 ft 162 kts 60°
2026-04-22 15:24 55.84026 -3.69273 3956 ft 161 kts 61°
2026-04-22 15:24 55.84588 -3.67650 3942 ft 160 kts 61°
2026-04-22 15:24 55.85179 -3.65936 3838 ft 163 kts 61°
2026-04-22 15:24 55.85773 -3.64211 3551 ft 164 kts 61°
2026-04-22 15:25 55.86365 -3.62493 3319 ft 161 kts 61°
2026-04-22 15:25 55.86943 -3.60810 3091 ft 159 kts 61°
2026-04-22 15:25 55.87510 -3.59160 2872 ft 158 kts 61°
2026-04-22 15:25 55.88090 -3.57472 2647 ft 158 kts 61°
2026-04-22 15:26 55.88652 -3.55829 2428 ft 156 kts 60°
2026-04-22 15:26 55.89213 -3.54194 2211 ft 156 kts 60°
2026-04-22 15:26 55.89778 -3.52542 1992 ft 154 kts 60°
2026-04-22 15:26 55.90329 -3.50933 1783 ft 153 kts 60°
2026-04-22 15:27 55.90883 -3.49314 1567 ft 151 kts 60°
2026-04-22 15:27 55.91428 -3.47721 1380 ft 147 kts 60°
2026-04-22 15:27 55.91938 -3.46227 1183 ft 136 kts 60°
2026-04-22 15:27 55.92421 -3.44811 976 ft 134 kts 59°
2026-04-22 15:28 55.92891 -3.43463 799 ft 131 kts 59°
2026-04-22 15:28 55.93345 -3.42082 629 ft 129 kts 60°
2026-04-22 15:28 55.93812 -3.40725 452 ft 128 kts 58°
2026-04-22 15:28 55.94288 -3.39365 245 ft 130 kts 59°
2026-04-22 15:29 55.94756 -3.37972 142 ft 120 kts 58°
2026-04-22 15:29 55.95049 -3.37102 142 ft 45 kts 58°
2026-04-22 15:29 55.95177 -3.36723 142 ft 30 kts 58°
2026-04-22 15:30 55.95250 -3.36417 142 ft 8 kts 129°
2026-04-22 15:30 55.95205 -3.36366 142 ft 6 kts 148°
2026-04-22 15:30 55.95169 -3.36326 142 ft 5 kts 148°
2026-04-22 15:30 55.95135 -3.36319 142 ft 5 kts 198°
2026-04-22 15:31 55.95097 -3.36390 142 ft 10 kts 237°
2026-04-22 15:31 55.95052 -3.36524 142 ft 14 kts 238°
2026-04-22 15:31 55.95000 -3.36675 142 ft 14 kts 238°
2026-04-22 15:31 55.94959 -3.36797 142 ft 7 kts 237°
2026-04-22 15:32 55.94913 -3.36819 142 ft 8 kts 157°
2026-04-22 15:32 55.94857 -3.36779 142 ft 8 kts 170°
2026-04-22 15:32 55.94803 -3.36779 142 ft 7 kts 179°
2026-04-22 15:32 55.94766 -3.36757 142 ft 6 kts 149°
2026-04-22 15:33 55.94725 -3.36739 142 ft 6 kts 177°
2026-04-22 15:33 55.94702 -3.36698 142 ft 5 kts 91°
2026-04-22 15:33 55.94702 -3.36645 142 ft 2 kts 88°
2026-04-22 15:33 55.94702 -3.36624 142 ft 1 kts 88°
2026-04-22 15:34 55.94702 -3.36621 142 ft 0 kts 88°
2026-04-22 15:34 55.94702 -3.36620 142 ft 0 kts 88°